Regional Weather Roundup
Issued by NWS Grand Forks, ND

Home | Current Version | Previous Version | Text Only | Print | Product List | Glossary Off
Versions: 1 2 3 4 5 6 7 8 9 10 11 12 13 14 15 16 17 18 19 20 21 22 23 24 25 26 27 28 29 30 31 32 33 34 35 36 37 38 39 40 41 42 43 44 45 46 47 48 49 50

000
ASUS43 KFGF 191810
RWRFGF
PRAIRIE TO PINES  WEATHER ROUNDUP
NATIONAL WEATHER SERVICE EASTERN NORTH DAKOTA/GRAND FORKS ND
1200 PM CST FRI DEC 19 2014

 **SATELLITE DATA USED TO AUGMENT SKY COVER AT AUTOMATED STATIONS**
 *****  WEATHER ACROSS EASTERN NORTH DAKOTA  *****

CITY           SKY/WX    TMP DP  RH WIND       PRES   REMARKS
GRAND FORKS    CLOUDY    26  25  96 S10       30.04F FOG     WCI  16
6HR MIN TEMP:  22; 6HR MAX TEMP:  26; 6HR PCP: TRACE;

GRAND FRKS AFB CLOUDY    26  26 100 S9        30.04F FOG     WCI  17
DEVILS LAKE    CLOUDY    27  19  74 S6        29.94F WCI  20
6HR MIN TEMP:  25; 6HR MAX TEMP:  27;

FARGO          CLOUDY    29  26  89 S14       30.06F FOG     WCI  18
WAHPETON ARPT  CLOUDY    28  27  93 S9        30.08F WCI  20
$$

 ***** WEATHER ACROSS CENTRAL AND WESTERN NORTH DAKOTA  *****

CITY           SKY/WX    TMP DP  RH WIND       PRES   REMARKS
BISMARCK       CLOUDY    28  24  85 CALM      29.95F
6HR MIN TEMP:  21; 6HR MAX TEMP:  28;

MINOT          CLOUDY    27  25  92 SW5       29.93S FOG     WCI  22
6HR MIN TEMP:  27; 6HR MAX TEMP:  28;

JAMESTOWN      CLOUDY    28  26  92 S9        29.96F WCI  19
6HR MIN TEMP:  25; 6HR MAX TEMP:  28;

MINOT AFB      CLOUDY    27  27 100 W2        29.93F
GARRISON         N/A     25  24  96 CALM      29.93F
WILLISTON      PTSUNNY   22  21  96 S3        29.92F FOG
6HR MIN TEMP:  20; 6HR MAX TEMP:  23;

DICKINSON      SUNNY     38  27  64 W9        29.90F
6HR MIN TEMP:  28; 6HR MAX TEMP:  38;

HETTINGER      MOSUNNY   37  26  64 W9        29.94F
6HR MIN TEMP:  23; 6HR MAX TEMP:  38;

$$

 *****  OTHER AIRPORT OBSERVATIONS IN OUR AREA  *****

CITY           SKY/WX    TMP DP  RH WIND       PRES   REMARKS
WALHALLA         N/A     25  25 100 S8        30.02F FOG     WCI  16
GRAFTON AIRPOR NOT AVBL
VALLEY CITY AR CLOUDY    27  27 100 S13G18    29.99F FOG     WCI  16
CANDO          CLOUDY    27  27 100 S6        29.96F FOG     WCI  20
CAVALIER APRT  FOG       25  25 100 S7        30.03F VSB 1   WCI  17
GWINNER        CLOUDY    32  32 100 MISG      30.03F
SHEYENNE NWR     N/A     30  27  88 S9        29.95  WCI  22
ROLLA          FOG       25  25 100 CALM      29.94F VSB 3/4
 ***** THE ABOVE OBSERVATIONS ARE NON NWS ARE NOT QUALITY
       CONTROLLED AND MAY MIS-REPORT RAIN FOR SNOW...
$$

  *****  WEATHER ACROSS NORTHERN MINNESOTA  *****

CITY           SKY/WX    TMP DP  RH WIND       PRES   REMARKS
FLAG ISLAND    CLOUDY    21  19  93 S17       30.09F WCI   7
WARROAD        CLOUDY    23  19  86 S10       30.09F FOG     WCI  12
ROSEAU         CLOUDY    25  19  80 S10       30.08F FOG     WCI  15
HALLOCK        CLOUDY    27  25  93 S10       30.05F FOG     WCI  17
THF RVR FALLS  CLOUDY    25  23  93 S12       30.07F WCI  14
6HR MIN TEMP:  21; 6HR MAX TEMP:  25;

BAUDETTE       CLOUDY    23  18  81 S7        30.10F WCI  15
6HR MIN TEMP:  20; 6HR MAX TEMP:  23; 6HR PCP: TRACE;

WASKISH        CLOUDY    23  19  86 SE8       30.11F WCI  14
CROOKSTON      CLOUDY    27  25  93 S14       30.07F FOG     WCI  15
STEPHEN NDAWN    N/A     27  25  93 S12         N/A  WCI  16
GREENBUSH NDAW   N/A     25  23  93 SE10        N/A  WCI  15
$$
  *****  WEATHER ACROSS CENTRAL AND WEST MINNESOTA  *****

CITY           SKY/WX    TMP DP  RH WIND       PRES   REMARKS
FOSSTON        CLOUDY    23  21  93 SE8       30.08F FOG     WCI  14
BEMIDJI        CLOUDY    21  20  96 SE9       30.10F FOG     WCI  11
PARK RAPIDS    FOG       23  21  92 SE10      30.10F VSB 3/4 WCI  12
6HR MIN TEMP:  19; 6HR MAX TEMP:  23;

ELBOW LAKE     CLOUDY    27  26  96 S14       30.08F FOG     WCI  16
6HR MIN TEMP:  22; 6HR MAX TEMP:  27;

WADENA         FOG       21  21 100 NW5       30.10F VSB 3/4 WCI  15
DETROIT LAKES  CLOUDY    27  27 100 SE12      30.07F FOG     WCI  16
MOORHEAD       CLOUDY    28  28 100 S13G18    30.07F FOG     WCI  18
FERGUS FALLS   CLOUDY    27  27 100 S14       30.11F FOG     WCI  15
MORRIS MN      MOSUNNY   30  28  93 S13       30.09F FOG     WCI  20
STAPLES        CLOUDY    21  21 100 SE8       30.13S FOG     WCI  12
$$
  *****  WEATHER ELSEWHERE ACROSS MINNESOTA  *****

CITY           SKY/WX    TMP DP  RH WIND       PRES   REMARKS
DULUTH         LGT SNOW  23  18  81 S9        30.17F WCI  13
6HR MIN TEMP:  20; 6HR MAX TEMP:  23; 6HR PCP: TRACE;

INTRNTL FALLS  LGT SNOW  23  18  81 SE9       30.14F WCI  13
6HR MIN TEMP:  21; 6HR MAX TEMP:  23; 6HR PCP: TRACE;

ELY            CLOUDY    21  18  86 S5        30.17F WCI  15
CLOQUET        CLOUDY    23  19  86 S3        30.18F
WHEATON        CLOUDY    28  27  93 S13       30.09F FOG     WCI  18
BRAINERD       CLOUDY    22  20  92 SE6       30.16F FOG     WCI  14
6HR MIN TEMP:  19; 6HR MAX TEMP:  22;

HIBBING        CLOUDY    23  17  78 S6        30.16F WCI  16
6HR MIN TEMP:  19; 6HR MAX TEMP:  23; 6HR PCP: TRACE;

ALEXANDRIA     CLOUDY    27  25  92 S9        30.10F FOG     WCI  18
6HR MIN TEMP:  22; 6HR MAX TEMP:  27;

SAINT CLOUD    CLOUDY    25  21  85 SE9       30.18F FOG     WCI  15
6HR MIN TEMP:  22; 6HR MAX TEMP:  25;

MINNEAPOLIS    CLOUDY    26  21  81 SE8       30.23F WCI  18
6HR MIN TEMP:  22; 6HR MAX TEMP:  26; 6HR PCP: TRACE;

$$

  *****  WEATHER ACROSS SOUTH DAKOTA  *****

CITY           SKY/WX    TMP DP  RH WIND       PRES   REMARKS
SIOUX FALLS    CLOUDY    30  27  88 S17       30.13F WCI  18
6HR MIN TEMP:  28; 6HR MAX TEMP:  30;

BROOKINGS      NOT AVBL
WATERTOWN      CLOUDY    27  26  96 S17       30.04F FOG     WCI  14
6HR MIN TEMP:  26; 6HR MAX TEMP:  27;

HURON          CLOUDY    29  27  92 MISG      30.06F FOG
6HR MIN TEMP:  28; 6HR MAX TEMP:  29;

SISSETON       NOT AVBL
ABERDEEN       CLOUDY    30  26  85 S18       30.03F FOG     WCI  18
6HR MIN TEMP:  27; 6HR MAX TEMP:  30;

MITCHELL       CLOUDY    30  28  92 S9        30.10F FOG     WCI  22
PIERRE         CLOUDY    24  21  88 CALM      30.00F
6HR MIN TEMP:  11; 6HR MAX TEMP:  24; 6HR PCP: TRACE;

MOBRIDGE       PTSUNNY   29  25  85 SE8       29.94F WCI  21
RAPID CITY     MOSUNNY   48  22  35 CALM      29.96F
6HR MIN TEMP:  22; 6HR MAX TEMP:  48;

$$

  *****  SOME WEATHER IN NEARBY STATES *****

CITY           SKY/WX    TMP DP  RH WIND       PRES   REMARKS
GLASGOW MT     SUNNY     31  27  85 CALM      29.91F
6HR MIN TEMP:  17; 6HR MAX TEMP:  31;

GREAT FALLS MT CLOUDY    39  27  62 S8        29.83F
6HR MIN TEMP:  32; 6HR MAX TEMP:  39;

CHEYENNE WY    SUNNY     38  13  35 W25G35    30.05S
6HR MIN TEMP:  21; 6HR MAX TEMP:  38;

SCOTTSBLUFF NE SUNNY     24  22  91 CALM      30.04F
6HR MIN TEMP:   2; 6HR MAX TEMP:  24;

OMAHA NE       CLOUDY    34  29  82 S9        30.22F HAZE
6HR MIN TEMP:  31; 6HR MAX TEMP:  34;

DES MOINES IA  CLOUDY    32  27  81 S8        30.25F WCI  25
6HR MIN TEMP:  29; 6HR MAX TEMP:  32; 6HR PCP: TRACE;

DAVENPORT IA   CLOUDY    28  20  71 E6        30.30F WCI  22
6HR MIN TEMP:  14; 6HR MAX TEMP:  28;

CHICAGO IL     CLOUDY    31  21  66 N3        30.29F
6HR MIN TEMP:  28; 6HR MAX TEMP:  31;

EAU CLAIRE WI  CLOUDY    26  19  74 S8        30.25F WCI  18
6HR MIN TEMP:  23; 6HR MAX TEMP:  26;

LA CROSSE WI   CLOUDY    30  19  63 SW7       30.29F WCI  23
6HR MIN TEMP:  23; 6HR MAX TEMP:  30;

$$

  *****  SOME NATIONAL WEATHER *****

CITY           SKY/WX    TMP DP  RH WIND       PRES   REMARKS
LA GUARDIA NY  MOSUNNY   36  21  54 NW14      30.03F
6HR MIN TEMP:  35; 6HR MAX TEMP:  37;

RALEIGH NC     MOSUNNY   50  24  36 VRB6      30.13F
6HR MIN TEMP:  38; 6HR MAX TEMP:  50;

ATLANTA GA     PTSUNNY   52  34  50 W5        30.14F
6HR MIN TEMP:  38; 6HR MAX TEMP:  52;

NEW ORLEANS LA LGT RAIN  55  52  89 E12       30.09F FOG
6HR MIN TEMP:  54; 6HR MAX TEMP:  57; 6HR PCP:  0.08;

OKLAHOMA CITY  CLOUDY    41  37  87 N7        30.21F FOG
6HR MIN TEMP:  38; 6HR MAX TEMP:  41; 6HR PCP: TRACE;

ALBUQUERQUE NM MOSUNNY   40  24  53 NW9G21    30.24F
6HR MIN TEMP:  31; 6HR MAX TEMP:  40;

SALT LAKE CITY MOSUNNY   41  28  60 SE9       30.20R
6HR MIN TEMP:  32; 6HR MAX TEMP:  41;

LOS ANGELES CA MOSUNNY   59  47  64 E7        30.24S


USA.gov is the U.S. government's official web portal to all federal, state and local government web resources and services.